"Sample Date","Sample Time","Sample Value","Units","Flow Rate","Sample Interval","Number Channels","Micron Size 0","Counts/Channel 0","Micron Size 1","Counts/Channel 1","Micron Size 2","Counts/Channel 2","Micron Size 3","Counts/Channel 3","Micron Size 4","Counts/Channel 4","Micron Size 5","Counts/Channel 5","Micron Size 6","Counts/Channel 6","Micron Size 7","Counts/Channel 7","Micron Size 8","Counts/Channel 8","Micron Size 9","Counts/Channel 9","Micron Size 10","Counts/Channel 10","Micron Size 11","Counts/Channel 11","Micron Size 12","Counts/Channel 12","Micron Size 13","Counts/Channel 13","Micron Size 14","Counts/Channel 14","Micron Size 15","Counts/Channel 15","Micron Size 16","Counts/Channel 16","Micron Size 17","Counts/Channel 17","Micron Size 18","Counts/Channel 18","Micron Size 19","Counts/Channel 19","Micron Size 20","Counts/Channel 20","Micron Size 21","Counts/Channel 21","Micron Size 22","Counts/Channel 22","Micron Size 23","Counts/Channel 23","Micron Size 24","Counts/Channel 24","Micron Size 25","Counts/Channel 25","Micron Size 26","Counts/Channel 26","Micron Size 27","Counts/Channel 27","Micron Size 28","Counts/Channel 28","Micron Size 29","Counts/Channel 29","Micron Size 30","Counts/Channel 30","Micron Size 31","Counts/Channel 31"
"04/01/08","21:00:00",21263.000,"cc",28302.018,6.00,6,0.100,19191.000,0.200,787.000,0.300,497.000,0.500,571.000,1.000,217.000,5.000,0
"04/01/08","21:00:06",23641.000,"cc",28399.969,6.00,6,0.100,21465.000,0.200,927.000,0.300,485.000,0.500,571.000,1.000,193.000,5.000,0
"04/01/08","21:00:12",20985.000,"cc",28314.893,6.00,6,0.100,18912.000,0.200,738.000,0.300,509.000,0.500,587.000,1.000,239.000,5.000,0
"04/01/08","21:00:18",19728.000,"cc",28274.295,6.00,6,0.100,17855.000,0.200,624.000,0.300,481.000,0.500,544.000,1.000,224.000,5.000,0
"04/01/08","21:00:24",20188.000,"cc",28375.082,6.00,6,0.100,18198.000,0.200,665.000,0.300,504.000,0.500,583.000,1.000,238.000,5.000,0
"04/01/08","21:00:30",20160.000,"cc",28296.559,6.00,6,0.100,18107.000,0.200,697.000,0.300,507.000,0.500,631.000,1.000,218.000,5.000,0
"04/01/08","21:00:36",19223.000,"cc",28263.324,6.00,6,0.100,17324.000,0.200,578.000,0.300,513.000,0.500,599.000,1.000,209.000,5.000,0
"04/01/08","21:00:42",19564.000,"cc",28332.553,6.00,6,0.100,17618.000,0.200,615.000,0.300,526.000,0.500,568.000,1.000,237.000,5.000,0
"04/01/08","21:00:48",19399.000,"cc",28337.615,6.00,6,0.100,17379.000,0.200,634.000,0.300,490.000,0.500,646.000,1.000,250.000,5.000,0
"04/01/08","21:00:54",18861.000,"cc",28276.023,6.00,6,0.100,16964.000,0.200,565.000,0.300,499.000,0.500,615.000,1.000,218.000,5.000,0
"04/01/08","21:01:00",19784.000,"cc",28300.690,6.00,6,0.100,17916.000,0.200,570.000,0.300,507.000,0.500,580.000,1.000,211.000,5.000,0
"04/01/08","21:01:06",18508.000,"cc",28285.629,6.00,6,0.100,16748.000,0.200,519.000,0.300,470.000,0.500,576.000,1.000,195.000,5.000,0
"04/01/08","21:01:12",18924.000,"cc",28362.881,6.00,6,0.100,17169.000,0.200,561.000,0.300,443.000,0.500,539.000,1.000,212.000,5.000,0
"04/01/08","21:01:18",19335.000,"cc",28295.955,6.00,6,0.100,17549.000,0.200,585.000,0.300,457.000,0.500,527.000,1.000,217.000,5.000,0
"04/01/08","21:01:24",19773.000,"cc",28316.143,6.00,6,0.100,17963.000,0.200,591.000,0.300,453.000,0.500,557.000,1.000,209.000,5.000,0
"04/01/08","21:01:30",19627.000,"cc",28286.951,6.00,6,0.100,17834.000,0.200,595.000,0.300,409.000,0.500,571.000,1.000,218.000,5.000,0
"04/01/08","21:01:36",21428.000,"cc",28287.129,6.00,6,0.100,19513.000,0.200,673.000,0.300,451.000,0.500,585.000,1.000,206.000,5.000,0
"04/01/08","21:01:42",20235.000,"cc",28396.801,6.00,6,0.100,18350.000,0.200,689.000,0.300,483.000,0.500,517.000,1.000,196.000,5.000,0
"04/01/08","21:01:48",19364.000,"cc",28363.033,6.00,6,0.100,17566.000,0.200,599.000,0.300,464.000,0.500,519.000,1.000,216.000,5.000,0
"04/01/08","21:01:54",19438.000,"cc",28322.898,6.00,6,0.100,17524.000,0.200,629.000,0.300,483.000,0.500,572.000,1.000,230.000,5.000,0
"04/01/08","21:02:00",19389.000,"cc",28310.322,6.00,6,0.100,17394.000,0.200,663.000,0.300,499.000,0.500,604.000,1.000,229.000,5.000,0
"04/01/08","21:02:06",19352.000,"cc",28314.190,6.00,6,0.100,17431.000,0.200,591.000,0.300,483.000,0.500,620.000,1.000,227.000,5.000,0
"04/01/08","21:02:12",19469.000,"cc",28281.539,6.00,6,0.100,17606.000,0.200,614.000,0.300,466.000,0.500,576.000,1.000,207.000,5.000,0
"04/01/08","21:02:18",19237.000,"cc",28306.412,6.00,6,0.100,17337.000,0.200,624.000,0.300,493.000,0.500,560.000,1.000,223.000,5.000,0
"04/01/08","21:02:24",19115.000,"cc",28285.459,6.00,6,0.100,17343.000,0.200,579.000,0.300,472.000,0.500,520.000,1.000,201.000,5.000,0
"04/01/08","21:02:30",20415.000,"cc",28316.617,6.00,6,0.100,18444.000,0.200,667.000,0.300,471.000,0.500,601.000,1.000,232.000,5.000,0
"04/01/08","21:02:36",19956.000,"cc",28357.584,6.00,6,0.100,18145.000,0.200,618.000,0.300,450.000,0.500,549.000,1.000,194.000,5.000,0
"04/01/08","21:02:42",19909.000,"cc",28238.854,6.00,6,0.100,18033.000,0.200,633.000,0.300,477.000,0.500,552.000,1.000,214.000,5.000,0
"04/01/08","21:02:48",19870.000,"cc",28313.604,6.00,6,0.100,18027.000,0.200,616.000,0.300,458.000,0.500,551.000,1.000,218.000,5.000,0
"04/01/08","21:02:54",19348.000,"cc",28402.908,6.00,6,0.100,17453.000,0.200,577.000,0.300,478.000,0.500,605.000,1.000,235.000,5.000,0
"04/01/08","21:03:00",19162.000,"cc",28227.426,6.00,6,0.100,17233.000,0.200,607.000,0.300,469.000,0.500,612.000,1.000,241.000,5.000,0
"04/01/08","21:03:06",18785.000,"cc",28327.344,6.00,6,0.100,16925.000,0.200,555.000,0.300,483.000,0.500,590.000,1.000,232.000,5.000,0
"04/01/08","21:03:12",18608.000,"cc",28330.397,6.00,6,0.100,16779.000,0.200,589.000,0.300,463.000,0.500,568.000,1.000,209.000,5.000,0
"04/01/08","21:03:18",18582.000,"cc",28350.113,6.00,6,0.100,16746.000,0.200,527.000,0.300,473.000,0.500,570.000,1.000,266.000,5.000,0
"04/01/08","21:03:24",18794.000,"cc",28244.740,6.00,6,0.100,16990.000,0.200,564.000,0.300,450.000,0.500,573.000,1.000,217.000,5.000,0
"04/01/08","21:03:30",18827.000,"cc",28313.854,6.00,6,0.100,17017.000,0.200,594.000,0.300,473.000,0.500,548.000,1.000,195.000,5.000,0
"04/01/08","21:03:36",20234.000,"cc",28349.772,6.00,6,0.100,18330.000,0.200,656.000,0.300,475.000,0.500,570.000,1.000,203.000,5.000,0
"04/01/08","21:03:42",18993.000,"cc",28373.529,6.00,6,0.100,17210.000,0.200,540.000,0.300,480.000,0.500,533.000,1.000,230.000,5.000,0
"04/01/08","21:03:48",18650.000,"cc",28329.752,6.00,6,0.100,16823.000,0.200,563.000,0.300,487.000,0.500,590.000,1.000,187.000,5.000,0
"04/01/08","21:03:54",18747.000,"cc",28306.522,6.00,6,0.100,16954.000,0.200,587.000,0.300,467.000,0.500,525.000,1.000,214.000,5.000,0
"04/01/08","21:04:00",18771.000,"cc",28277.133,6.00,6,0.100,16909.000,0.200,566.000,0.300,523.000,0.500,552.000,1.000,221.000,5.000,0
"04/01/08","21:04:06",18537.000,"cc",28278.604,6.00,6,0.100,16714.000,0.200,602.000,0.300,452.000,0.500,561.000,1.000,208.000,5.000,0
"04/01/08","21:04:12",18590.000,"cc",28320.621,6.00,6,0.100,16707.000,0.200,575.000,0.300,543.000,0.500,564.000,1.000,201.000,5.000,0
"04/01/08","21:04:18",18505.000,"cc",28346.742,6.00,6,0.100,16726.000,0.200,545.000,0.300,472.000,0.500,532.000,1.000,230.000,5.000,0
"04/01/08","21:04:24",18709.000,"cc",28349.574,6.00,6,0.100,16944.000,0.200,539.000,0.300,477.000,0.500,550.000,1.000,199.000,5.000,0
"04/01/08","21:04:30",18612.000,"cc",28325.205,6.00,6,0.100,16819.000,0.200,547.000,0.300,461.000,0.500,580.000,1.000,205.000,5.000,0
"04/01/08","21:04:36",19233.000,"cc",28302.418,6.00,6,0.100,17518.000,0.200,503.000,0.300,485.000,0.500,514.000,1.000,213.000,5.000,0
"04/01/08","21:04:42",18639.000,"cc",28246.664,6.00,6,0.100,16841.000,0.200,564.000,0.300,477.000,0.500,540.000,1.000,217.000,5.000,0
"04/01/08","21:04:48",19085.000,"cc",28293.172,6.00,6,0.100,17285.000,0.200,571.000,0.300,502.000,0.500,528.000,1.000,199.000,5.000,0
"04/01/08","21:04:54",19021.000,"cc",28352.285,6.00,6,0.100,17198.000,0.200,573.000,0.300,485.000,0.500,567.000,1.000,198.000,5.000,0
"04/01/08","21:05:00",19241.000,"cc",28337.262,6.00,6,0.100,17415.000,0.200,596.000,0.300,455.000,0.500,561.000,1.000,214.000,5.000,0
"04/01/08","21:05:06",19389.000,"cc",28312.436,6.00,6,0.100,17533.000,0.200,589.000,0.300,465.000,0.500,576.000,1.000,226.000,5.000,0
"04/01/08","21:05:12",19466.000,"cc",28346.637,6.00,6,0.100,17498.000,0.200,633.000,0.300,532.000,0.500,585.000,1.000,218.000,5.000,0
"04/01/08","21:05:18",19598.000,"cc",28307.477,6.00,6,0.100,17674.000,0.200,593.000,0.300,525.000,0.500,586.000,1.000,220.000,5.000,0
"04/01/08","21:05:24",19700.000,"cc",28284.643,6.00,6,0.100,17678.000,0.200,612.000,0.300,507.000,0.500,663.000,1.000,240.000,5.000,0
"04/01/08","21:05:30",19170.000,"cc",28347.996,6.00,6,0.100,17212.000,0.200,578.000,0.300,538.000,0.500,614.000,1.000,228.000,5.000,0
"04/01/08","21:05:36",19329.000,"cc",28338.695,6.00,6,0.100,17547.000,0.200,524.000,0.300,470.000,0.500,596.000,1.000,192.000,5.000,0
"04/01/08","21:05:42",19213.000,"cc",28296.395,6.00,6,0.100,17382.000,0.200,569.000,0.300,450.000,0.500,595.000,1.000,217.000,5.000,0
"04/01/08","21:05:48",19121.000,"cc",28336.004,6.00,6,0.100,17239.000,0.200,572.000,0.300,485.000,0.500,595.000,1.000,230.000,5.000,0
"04/01/08","21:05:54",19294.000,"cc",28311.959,6.00,6,0.100,17439.000,0.200,569.000,0.300,508.000,0.500,588.000,1.000,190.000,5.000,0
"04/01/08","21:06:00",19394.000,"cc",28334.100,6.00,6,0.100,17454.000,0.200,615.000,0.300,484.000,0.500,601.000,1.000,240.000,5.000,0
"04/01/08","21:06:06",19385.000,"cc",28326.758,6.00,6,0.100,17469.000,0.200,596.000,0.300,489.000,0.500,604.000,1.000,227.000,5.000,0
"04/01/08","21:06:12",19233.000,"cc",28289.565,6.00,6,0.100,17263.000,0.200,600.000,0.300,528.000,0.500,616.000,1.000,226.000,5.000,0
"04/01/08","21:06:18",19037.000,"cc",28274.596,6.00,6,0.100,17193.000,0.200,552.000,0.300,492.000,0.500,585.000,1.000,215.000,5.000,0
"04/01/08","21:06:24",19510.000,"cc",28301.637,6.00,6,0.100,17336.000,0.200,699.000,0.300,597.000,0.500,634.000,1.000,244.000,5.000,0
"04/01/08","21:06:30",20486.000,"cc",28374.363,6.00,6,0.100,18416.000,0.200,715.000,0.300,526.000,0.500,611.000,1.000,218.000,5.000,0
"04/01/08","21:06:36",21555.000,"cc",28347.557,6.00,6,0.100,19105.000,0.200,910.000,0.300,605.000,0.500,691.000,1.000,244.000,5.000,0
"04/01/08","21:06:42",21105.000,"cc",28323.162,6.00,6,0.100,18623.000,0.200,926.000,0.300,626.000,0.500,671.000,1.000,259.000,5.000,0
"04/01/08","21:06:48",21155.000,"cc",28311.244,6.00,6,0.100,18785.000,0.200,894.000,0.300,586.000,0.500,669.000,1.000,221.000,5.000,0
"04/01/08","21:06:54",46546.000,"cc",28298.219,6.00,6,0.100,42110.000,0.200,2832.000,0.300,638.000,0.500,701.000,1.000,265.000,5.000,0
"04/01/08","21:07:00",34250.000,"cc",28342.293,6.00,6,0.100,30580.000,0.200,1931.000,0.300,750.000,0.500,726.000,1.000,263.000,5.000,0
"04/01/08","21:07:06",95036.000,"cc",28347.842,6.00,6,0.100,86082.000,0.200,6844.000,0.300,1052.000,0.500,785.000,1.000,273.000,5.000,0
"04/01/08","21:07:12",76484.000,"cc",28315.563,6.00,6,0.100,68776.000,0.200,5459.000,0.300,1015.000,0.500,918.000,1.000,316.000,5.000,0
"04/01/08","21:07:18",78065.000,"cc",28314.561,6.00,6,0.100,70004.000,0.200,5603.000,0.300,1107.000,0.500,1001.000,1.000,350.000,5.000,0
"04/01/08","21:07:24",83038.000,"cc",28278.141,6.00,6,0.100,75063.000,0.200,5963.000,0.300,919.000,0.500,798.000,1.000,295.000,5.000,0
"04/01/08","21:07:30",126810.000,"cc",28304.637,6.00,6,0.100,115000.000,0.200,9715.000,0.300,1098.000,0.500,735.000,1.000,262.000,5.000,0
"04/01/08","21:07:36",137307.000,"cc",28357.631,6.00,6,0.100,123289.000,0.200,11205.000,0.300,1415.000,0.500,1055.000,1.000,343.000,5.000,0
"04/01/08","21:07:42",143135.000,"cc",28293.955,6.00,6,0.100,127777.000,0.200,12252.000,0.300,1552.000,0.500,1139.000,1.000,415.000,5.000,0
"04/01/08","21:07:48",164914.000,"cc",28361.979,6.00,6,0.100,147229.000,0.200,14226.000,0.300,1750.000,0.500,1255.000,1.000,454.000,5.000,0
"04/01/08","21:07:54",76743.000,"cc",28263.316,6.00,6,0.100,68640.000,0.200,5646.000,0.300,1126.000,0.500,990.000,1.000,341.000,5.000,0
"04/01/08","21:08:00",114551.000,"cc",28269.057,6.00,6,0.100,102498.000,0.200,9392.000,0.300,1283.000,0.500,1035.000,1.000,343.000,5.000,0
"04/01/08","21:08:06",260330.000,"cc",28335.547,6.00,6,0.100,230516.000,0.200,26186.000,0.300,2148.000,0.500,1097.000,1.000,383.000,5.000,0
"04/01/08","21:08:12",266253.000,"cc",28353.920,6.00,6,0.100,236183.000,0.200,26406.000,0.300,2142.000,0.500,1117.000,1.000,405.000,5.000,0
"04/01/08","21:08:18",184872.000,"cc",28329.961,6.00,6,0.100,116840.000,0.200,62420.000,0.300,3959.000,0.500,1236.000,1.000,417.000,5.000,0
"04/01/08","21:08:24",242398.000,"cc",28312.379,6.00,6,0.100,179770.000,0.200,57986.000,0.300,3313.000,0.500,1012.000,1.000,317.000,5.000,0
"04/01/08","21:08:30",166538.000,"cc",28275.043,6.00,6,0.100,87126.000,0.200,74065.000,0.300,4123.000,0.500,942.000,1.000,282.000,5.000,0
"04/01/08","21:08:36",215057.000,"cc",28362.576,6.00,6,0.100,104137.000,0.200,103105.000,0.300,6061.000,0.500,1314.000,1.000,440.000,5.000,0
"04/01/08","21:08:42",253821.000,"cc",28302.684,6.00,6,0.100,152827.000,0.200,94540.000,0.300,5273.000,0.500,910.000,1.000,271.000,5.000,0
"04/01/08","21:08:48",379674.000,"cc",28323.473,6.00,6,0.100,331458.000,0.200,44986.000,0.300,2395.000,0.500,611.000,1.000,224.000,5.000,0
"04/01/08","21:08:54",180028.000,"cc",28320.065,6.00,6,0.100,91646.000,0.200,82783.000,0.300,4512.000,0.500,824.000,1.000,263.000,5.000,0
"04/01/08","21:09:00",250877.000,"cc",28284.199,6.00,6,0.100,221674.000,0.200,26247.000,0.300,1779.000,0.500,893.000,1.000,284.000,5.000,0
"04/01/08","21:09:06",312904.000,"cc",28340.824,6.00,6,0.100,276412.000,0.200,33624.000,0.300,1924.000,0.500,682.000,1.000,262.000,5.000,0
"04/01/08","21:09:12",160308.000,"cc",28316.551,6.00,6,0.100,86401.000,0.200,69193.000,0.300,3552.000,0.500,891.000,1.000,271.000,5.000,0
"04/01/08","21:09:18",346773.000,"cc",28295.740,6.00,6,0.100,274644.000,0.200,67574.000,0.300,3464.000,0.500,820.000,1.000,271.000,5.000,0
"04/01/08","21:09:24",316742.000,"cc",28318.188,6.00,6,0.100,269724.000,0.200,43744.000,0.300,2318.000,0.500,707.000,1.000,249.000,5.000,0
"04/01/08","21:09:30",298324.000,"cc",28299.275,6.00,6,0.100,265457.000,0.200,30227.000,0.300,1659.000,0.500,725.000,1.000,256.000,5.000,0
"04/01/08","21:09:36",274039.000,"cc",28378.363,6.00,6,0.100,244895.000,0.200,26576.000,0.300,1547.000,0.500,757.000,1.000,264.000,5.000,0
"04/01/08","21:09:42",286868.000,"cc",28377.061,6.00,6,0.100,255509.000,0.200,28550.000,0.300,1741.000,0.500,786.000,1.000,282.000,5.000,0
"04/01/08","21:09:48",231687.000,"cc",28283.981,6.00,6,0.100,207721.000,0.200,21375.000,0.300,1467.000,0.500,833.000,1.000,291.000,5.000,0
"04/01/08","21:09:54",320514.000,"cc",28297.059,6.00,6,0.100,284615.000,0.200,32986.000,0.300,1841.000,0.500,791.000,1.000,281.000,5.000,0
"04/01/08","21:10:00",322937.000,"cc",28329.111,6.00,6,0.100,287143.000,0.200,32965.000,0.300,1821.000,0.500,758.000,1.000,250.000,5.000,0
"04/01/08","21:10:06",351814.000,"cc",28338.920,6.00,6,0.100,311349.000,0.200,37339.000,0.300,2079.000,0.500,784.000,1.000,263.000,5.000,0
"04/01/08","21:10:12",307257.000,"cc",28309.967,6.00,6,0.100,273127.000,0.200,31210.000,0.300,1850.000,0.500,807.000,1.000,263.000,5.000,0
"04/01/08","21:10:18",294712.000,"cc",28243.936,6.00,6,0.100,262549.000,0.200,29289.000,0.300,1739.000,0.500,839.000,1.000,296.000,5.000,0
"04/01/08","21:10:24",237231.000,"cc",28308.354,6.00,6,0.100,192354.000,0.200,41684.000,0.300,2118.000,0.500,818.000,1.000,257.000,5.000,0
"04/01/08","21:10:30",304583.000,"cc",28334.744,6.00,6,0.100,268700.000,0.200,33015.000,0.300,1791.000,0.500,815.000,1.000,262.000,5.000,0
"04/01/08","21:10:36",144398.000,"cc",28272.494,6.00,6,0.100,76267.000,0.200,63631.000,0.300,3209.000,0.500,997.000,1.000,294.000,5.000,0
"04/01/08","21:10:42",332040.000,"cc",28347.322,6.00,6,0.100,280533.000,0.200,47626.000,0.300,2576.000,0.500,981.000,1.000,324.000,5.000,0
"04/01/08","21:10:48",257145.000,"cc",28292.869,6.00,6,0.100,230660.000,0.200,23781.000,0.300,1582.000,0.500,823.000,1.000,299.000,5.000,0
"04/01/08","21:10:54",297696.000,"cc",28339.906,6.00,6,0.100,253844.000,0.200,40607.000,0.300,2196.000,0.500,778.000,1.000,271.000,5.000,0
"04/01/08","21:11:00",365484.000,"cc",28369.844,6.00,6,0.100,322287.000,0.200,39935.000,0.300,2184.000,0.500,803.000,1.000,275.000,5.000,0
"04/01/08","21:11:06",310927.000,"cc",28265.553,6.00,6,0.100,265502.000,0.200,42066.000,0.300,2216.000,0.500,843.000,1.000,300.000,5.000,0
"04/01/08","21:11:12",327278.000,"cc",28275.127,6.00,6,0.100,290544.000,0.200,33691.000,0.300,1955.000,0.500,813.000,1.000,275.000,5.000,0
"04/01/08","21:11:18",301592.000,"cc",28335.570,6.00,6,0.100,268539.000,0.200,30297.000,0.300,1785.000,0.500,720.000,1.000,251.000,5.000,0
"04/01/08","21:11:24",251188.000,"cc",28308.203,6.00,6,0.100,190691.000,0.200,56348.000,0.300,2978.000,0.500,878.000,1.000,293.000,5.000,0
"04/01/08","21:11:30",341636.000,"cc",28307.076,6.00,6,0.100,302002.000,0.200,36373.000,0.300,2121.000,0.500,841.000,1.000,299.000,5.000,0
"04/01/08","21:11:36",294638.000,"cc",28295.606,6.00,6,0.100,252236.000,0.200,39041.000,0.300,2249.000,0.500,831.000,1.000,281.000,5.000,0
"04/01/08","21:11:42",359294.000,"cc",28312.162,6.00,6,0.100,317266.000,0.200,38864.000,0.300,2186.000,0.500,729.000,1.000,249.000,5.000,0
"04/01/08","21:11:48",235388.000,"cc",28301.902,6.00,6,0.100,211103.000,0.200,21441.000,0.300,1604.000,0.500,897.000,1.000,343.000,5.000,0
"04/01/08","21:11:54",219885.000,"cc",28291.039,6.00,6,0.100,196497.000,0.200,20183.000,0.300,1718.000,0.500,1110.000,1.000,377.000,5.000,0
"04/01/08","21:12:00",160243.000,"cc",28291.211,6.00,6,0.100,144579.000,0.200,13425.000,0.300,1170.000,0.500,767.000,1.000,302.000,5.000,0
"04/01/08","21:12:06",286191.000,"cc",28332.418,6.00,6,0.100,255682.000,0.200,27287.000,0.300,1917.000,0.500,977.000,1.000,328.000,5.000,0
"04/01/08","21:12:12",276761.000,"cc",28400.033,6.00,6,0.100,246840.000,0.200,26693.000,0.300,1948.000,0.500,918.000,1.000,362.000,5.000,0
"04/01/08","21:12:18",274941.000,"cc",28352.387,6.00,6,0.100,245511.000,0.200,26432.000,0.300,1824.000,0.500,846.000,1.000,328.000,5.000,0
"04/01/08","21:12:24",277872.000,"cc",28330.576,6.00,6,0.100,248150.000,0.200,26590.000,0.300,1837.000,0.500,983.000,1.000,312.000,5.000,0
"04/01/08","21:12:30",275823.000,"cc",28289.078,6.00,6,0.100,237167.000,0.200,35388.000,0.300,2095.000,0.500,852.000,1.000,321.000,5.000,0
"04/01/08","21:12:36",297748.000,"cc",28274.512,6.00,6,0.100,265716.000,0.200,29039.000,0.300,1771.000,0.500,886.000,1.000,336.000,5.000,0
"04/01/08","21:12:42",298904.000,"cc",28287.100,6.00,6,0.100,266457.000,0.200,29161.000,0.300,1945.000,0.500,964.000,1.000,377.000,5.000,0
"04/01/08","21:12:48",200835.000,"cc",28366.137,6.00,6,0.100,180698.000,0.200,17450.000,0.300,1452.000,0.500,915.000,1.000,320.000,5.000,0
"04/01/08","21:12:54",248512.000,"cc",28323.832,6.00,6,0.100,220983.000,0.200,23302.000,0.300,2264.000,0.500,1429.000,1.000,534.000,5.000,0
"04/01/08","21:13:00",278630.000,"cc",28340.865,6.00,6,0.100,247560.000,0.200,26964.000,0.300,2264.000,0.500,1346.000,1.000,496.000,5.000,0
"04/01/08","21:13:06",296827.000,"cc",28337.889,6.00,6,0.100,264185.000,0.200,29297.000,0.300,1981.000,0.500,1007.000,1.000,357.000,5.000,0
"04/01/08","21:13:12",291865.000,"cc",28359.988,6.00,6,0.100,260432.000,0.200,28398.000,0.300,1811.000,0.500,902.000,1.000,322.000,5.000,0
"04/01/08","21:13:18",218435.000,"cc",28280.063,6.00,6,0.100,196822.000,0.200,19167.000,0.300,1380.000,0.500,779.000,1.000,287.000,5.000,0
"04/01/08","21:13:24",249729.000,"cc",28318.900,6.00,6,0.100,215390.000,0.200,31445.000,0.300,1797.000,0.500,834.000,1.000,263.000,5.000,0
"04/01/08","21:13:30",141836.000,"cc",28299.879,6.00,6,0.100,77338.000,0.200,60107.000,0.300,3027.000,0.500,1038.000,1.000,326.000,5.000,0
"04/01/08","21:13:36",318940.000,"cc",28276.158,6.00,6,0.100,273620.000,0.200,41937.000,0.300,2228.000,0.500,875.000,1.000,280.000,5.000,0
"04/01/08","21:13:42",255061.000,"cc",28290.213,6.00,6,0.100,195930.000,0.200,55014.000,0.300,2766.000,0.500,975.000,1.000,376.000,5.000,0
"04/01/08","21:13:48",255484.000,"cc",28297.963,6.00,6,0.100,196003.000,0.200,55518.000,0.300,2771.000,0.500,890.000,1.000,302.000,5.000,0
"04/01/08","21:13:54",171698.000,"cc",28356.043,6.00,6,0.100,98124.000,0.200,68936.000,0.300,3420.000,0.500,917.000,1.000,301.000,5.000,0
"04/01/08","21:14:00",305420.000,"cc",28341.227,6.00,6,0.100,248801.000,0.200,51923.000,0.300,3083.000,0.500,1146.000,1.000,467.000,5.000,0
"04/01/08","21:14:06",147930.000,"cc",28320.152,6.00,6,0.100,80668.000,0.200,62428.000,0.300,3292.000,0.500,1161.000,1.000,381.000,5.000,0
"04/01/08","21:14:12",210977.000,"cc",28252.459,6.00,6,0.100,145144.000,0.200,61272.000,0.300,3186.000,0.500,994.000,1.000,381.000,5.000,0
"04/01/08","21:14:18",197940.000,"cc",28329.238,6.00,6,0.100,112287.000,0.200,80643.000,0.300,3793.000,0.500,925.000,1.000,292.000,5.000,0
"04/01/08","21:14:24",192231.000,"cc",28266.621,6.00,6,0.100,107772.000,0.200,79294.000,0.300,3914.000,0.500,929.000,1.000,322.000,5.000,0
"04/01/08","21:14:30",245239.000,"cc",28300.231,6.00,6,0.100,163682.000,0.200,76700.000,0.300,3727.000,0.500,868.000,1.000,262.000,5.000,0
"04/01/08","21:14:36",181045.000,"cc",28279.090,6.00,6,0.100,122983.000,0.200,54356.000,0.300,2643.000,0.500,780.000,1.000,283.000,5.000,0
"04/01/08","21:14:42",314319.000,"cc",28355.398,6.00,6,0.100,269672.000,0.200,41315.000,0.300,2241.000,0.500,822.000,1.000,269.000,5.000,0
"04/01/08","21:14:48",274885.000,"cc",28391.471,6.00,6,0.100,246136.000,0.200,25747.000,0.300,1690.000,0.500,952.000,1.000,360.000,5.000,0
"04/01/08","21:14:54",251465.000,"cc",28359.096,6.00,6,0.100,225357.000,0.200,23231.000,0.300,1696.000,0.500,859.000,1.000,322.000,5.000,0
"04/01/08","21:15:00",219466.000,"cc",28318.295,6.00,6,0.100,198447.000,0.200,18724.000,0.300,1311.000,0.500,714.000,1.000,270.000,5.000,0
"04/01/08","21:15:06",259834.000,"cc",28277.447,6.00,6,0.100,232721.000,0.200,24304.000,0.300,1596.000,0.500,906.000,1.000,307.000,5.000,0
"04/01/08","21:15:12",342806.000,"cc",28328.285,6.00,6,0.100,292713.000,0.200,46421.000,0.300,2488.000,0.500,862.000,1.000,322.000,5.000,0
"04/01/08","21:15:18",349060.000,"cc",28329.998,6.00,6,0.100,308941.000,0.200,37111.000,0.300,2044.000,0.500,735.000,1.000,229.000,5.000,0
"04/01/08","21:15:24",365547.000,"cc",28313.299,6.00,6,0.100,322912.000,0.200,39289.000,0.300,2274.000,0.500,806.000,1.000,266.000,5.000,0
"04/01/08","21:15:30",313076.000,"cc",28271.356,6.00,6,0.100,278491.000,0.200,31736.000,0.300,1895.000,0.500,740.000,1.000,214.000,5.000,0
"04/01/08","21:15:36",266509.000,"cc",28302.781,6.00,6,0.100,238259.000,0.200,25454.000,0.300,1698.000,0.500,798.000,1.000,300.000,5.000,0
"04/01/08","21:15:42",232778.000,"cc",28379.174,6.00,6,0.100,208806.000,0.200,21122.000,0.300,1634.000,0.500,877.000,1.000,339.000,5.000,0
"04/01/08","21:15:48",352704.000,"cc",28329.703,6.00,6,0.100,309692.000,0.200,38858.000,0.300,2619.000,0.500,1137.000,1.000,398.000,5.000,0
"04/01/08","21:15:54",314538.000,"cc",28305.201,6.00,6,0.100,279400.000,0.200,31747.000,0.300,2113.000,0.500,943.000,1.000,335.000,5.000,0
"04/01/08","21:16:00",296898.000,"cc",28298.436,6.00,6,0.100,264826.000,0.200,28799.000,0.300,1983.000,0.500,939.000,1.000,351.000,5.000,0
"04/01/08","21:16:06",279261.000,"cc",28334.824,6.00,6,0.100,248737.000,0.200,26931.000,0.300,2113.000,0.500,1091.000,1.000,389.000,5.000,0
"04/01/08","21:16:12",259252.000,"cc",28352.488,6.00,6,0.100,232579.000,0.200,23870.000,0.300,1675.000,0.500,852.000,1.000,276.000,5.000,0
"04/01/08","21:16:18",298536.000,"cc",28371.844,6.00,6,0.100,266568.000,0.200,28911.000,0.300,1890.000,0.500,876.000,1.000,291.000,5.000,0